CAPE
696 966 1142 898 879 1262 1367 2025 2502 2391 2238 2321 2233 2298 2564 2810 2800 2786 3326 3321 3218 3250 3428 3536 3403 3308 3048 2580 2048 1754 2527 2823 2325 2075 2701 2776 2329 2146 2159 2307 1966 2226 1993 1986 2231 2181 3462 1779 1102 1666 1778 2308 2602 2588 3214 3048 3118 2849 2944 3574 3570 3493 3128
524 412 850 1028 962 1396 1983 2427 2310 2149 2358 2441 2775 2633 2179 2723 2840 2740 3286 3636 3644 3638 3585 3390 3439 3233 3108 2240 1898 1833 1858 2423 2500 2599 2576 2725 2632 2704 2447 2394 2456 2508 2394 1738 2081 2241 2266 2199 1866 1838 1332 2051 2416 3440 3311 3389 3146 3512 2724 2927 2987 3313 2957
604 414 713 1406 1234 1329 2209 2232 2027 1813 2070 2142 2495 2289 2221 2490 2682 3087 3174 3436 3768 3612 3386 3290 3327 3292 3176 2118 2175 2024 1953 2399 2710 2634 2259 2275 2300 2518 2828 2774 2542 2490 2089 1753 2285 1788 1709 1835 1730 1974 1404 1931 1396 2491 2671 2858 3437 3575 3073 3404 3146 2390 3065
641 433 1019 1589 1585 1753 1918 2221 1896 1863 2097 2004 2536 2652 2780 2831 2489 2923 3007 3562 2922 2581 2572 2638 2697 2716 2365 2081 2298 2540 2729 3224 3146 2731 2470 2377 2376 2514 2808 2593 2620 2191 2018 1987 2071 1460 1432 1698 1451 2383 2466 2120 2401 1558 2130 2634 2912 3100 2818 3340 3178 2712 2924
459 619 859 1119 1402 2036 2054 2257 2762 2778 2241 2239 2617 3064 2730 2646 2612 2920 2778 3029 2396 2357 2159 2313 2191 2440 2164 2148 2539 2871 3242 3356 2875 2847 2447 2343 2505 2417 2138 2136 2222 2167 2121 2001 1962 2240 2438 2240 1871 2680 2364 3440 1920 2284 2150 2475 2585 2714 2364 2823 2859 2361 2522
424 846 1365 1465 1428 2595 2776 2531 2172 1905 2614 2733 3150 3251 3006 2764 2656 2779 2496 2225 1924 1611 1808 1890 2014 1922 1812 2113 3273 2740 3208 3223 3345 3137 2769 2539 2526 2287 2070 2016 1940 2020 2023 2101 1644 1601 2086 2048 2263 2397 2125 2512 2372 1730 1752 2723 2305 2288 2442 2720 2793 2220 1849
847 998 1444 1045 1609 2317 2784 2636 2494 2690 2519 2398 2605 2865 2568 2547 2647 2508 2315 2107 1711 1592 1910 2025 2086 2045 2692 3782 3639 3135 2901 3067 3115 2730 2647 2511 2389 2406 2346 2182 2127 1903 2326 3166 2579 2200 2068 1932 2553 2702 2861 2266 2154 2005 1749 988 1558 2329 2715 2878 3144 2966 2586
2642 1999 1089 1066 1472 1960 2039 2122 2516 2523 2381 2215 2130 2098 2544 2202 1868 1881 2078 1942 1893 1739 1483 2474 2867 2402 3760 3570 3658 3477 2477 3128 3218 3045 2795 2422 2464 2258 2265 2118 2208 2388 2461 2290 2255 1779 1803 1858 1755 3586 2696 2122 1980 2430 1879 1285 1687 2632 2377 2488 2742 2563 2043
1700 1497 1855 1591 1580 1582 1663 1738 2180 2118 2390 2485 2268 2688 2224 1766 1559 1605 1655 1613 1480 1618 1784 2175 2412 3204 3929 3264 3058 3114 3148 2985 2821 2856 2643 2453 2326 1996 2139 2199 2191 2013 2028 2037 2346 1870 1802 2105 2960 2288 2147 2074 1861 1798 1598 1665 2613 2745 2490 2582 2496 2691 2433
1998 1810 2186 2129 2149 1814 2034 1703 2255 2431 2622 2616 2865 2479 2189 1808 1791 2472 2138 1769 1656 1583 2179 2742 3347 3448 3072 2833 3005 2949 2765 2891 2834 2559 2643 2447 2359 2171 2202 2032 1702 1926 1949 2135 2151 1857 1475 1379 1969 1454 1556 1892 1604 1940 1475 2834 2538 2084 1951 2219 1820 1562 1388
2556 2402 1373 1303 2024 2200 2636 2868 2913 2926 2887 2723 2748 2160 1234 1462 1196 1911 1648 2666 3410 3452 3133 2846 2970 3300 3134 3081 2911 2387 2182 2298 2480 2405 2382 2185 2370 2292 2359 2125 1882 1915 1940 2187 2028 1780 2053 2178 1687 1497 1377 1343 1475 1970 2079 2383 1514 1428 1760 1892 1870 1872 1772
3303 2823 2467 2013 2222 2530 2811 2950 3179 2938 2887 2740 1471 1376 1559 1917 1716 2111 2412 2892 2818 3158 3249 3492 3146 3277 2984 2454 2326 2397 1983 1765 1919 2284 2261 2126 2121 2078 2105 1902 1693 1692 2000 1933 1836 2182 1917 1554 1575 1850 1867 1417 1635 2122 2954 2105 1827 1566 1278 1663 2142 2237 2141
2480 2951 2489 2842 3231 3424 3445 3371 3473 3159 2265 1426 1149 1696 1640 1615 1806 2201 2837 2835 2927 2833 3063 3116 3264 3189 2628 2278 2256 2044 1835 1844 1723 2116 2216 2150 2078 1997 1769 1450 1477 1475 1524 1514 1633 1956 1614 1611 1553 1670 1724 1935 1741 1836 2190 1574 1650 2029 2103 2171 2219 2359 1902
1951 2098 2326 3369 3646 3590 3582 3472 3309 2760 1861 1629 1701 1919 1946 1826 1719 2227 2711 2659 2491 2624 2408 2506 2914 3045 2749 2460 2185 1870 1584 1325 1607 1817 2025 2046 2052 1738 1448 1549 1584 1391 1276 1638 1684 1641 1492 1381 1019 1098 1558 1877 1994 2062 2275 2445 2387 2326 1832 2031 2385 2315 2040
2030 2322 2883 3158 3596 3851 3053 2958 2324 1736 1573 1535 1720 1780 1765 1707 2112 2520 2258 2198 2142 2351 2434 2466 2583 2769 2831 2862 2984 2405 2201 2026 2017 2096 2364 1856 1422 1266 1448 1389 1374 1266 1274 1175 1473 1103 1124 1112 1160 915 1687 1814 2058 1885 2346 2325 1961 1810 1753 1964 2270 2211 1976
2056 2483 2716 2356 3148 3363 3242 3150 2639 1461 1652 1852 1939 2078 2234 2118 2429 2154 2032 2059 2245 2300 2426 2571 2747 2894 3021 3007 3067 2911 2819 2708 2356 2022 1975 1450 1287 1334 1374 1557 1369 1272 1061 1070 925 1236 1298 1833 2114 2123 2432 1790 1601 1574 1534 1784 1588 1794 2276 2782 2370 1978 2005
1845 1538 1685 2017 2636 3249 3305 3149 2706 2144 1996 2288 2490 2529 2559 2662 2634 2251 2063 1916 2036 2150 2482 3072 3116 3082 3079 2987 3116 3230 3130 2946 2745 2398 1877 1432 1504 1396 1417 1328 1364 1433 1268 1354 1461 1366 1482 2062 1720 1827 2128 1939 2118 1313 1748 1690 1532 1522 1396 1323 1443 1967 1991
2242 2066 1879 2598 3708 3663 3543 3151 2731 2711 2710 2816 3214 3244 3185 2934 2679 2172 1798 1689 1972 2483 3038 3428 3327 3318 3223 3126 3376 3312 3220 3070 2976 2514 2128 1559 1510 1293 1511 1756 1563 1655 1256 1537 1404 1744 1846 1825 1941 1879 2016 1566 1311 1381 1624 1550 1492 1430 1494 1551 1477 1396 1608
2203 1847 2242 2979 3022 3675 3879 3229 3166 2696 2885 3182 3027 3232 3239 3244 2516 2218 2008 1874 2228 2557 3321 3625 3476 3493 3449 3464 3367 3354 3188 3040 2989 2750 2562 2168 1765 1115 1416 1828 1686 1602 1506 1353 1732 1326 1965 2099 1886 1713 1681 1480 1147 1292 1440 1411 1327 1281 1170 1211 1219 1240 1191
2098 2078 1900 2314 2899 3204 3078 3412 3092 3751 3791 3610 3371 3401 3583 3422 2920 2624 2441 2421 2498 3151 3618 3718 3551 3353 3326 3175 3230 3116 3038 3060 2853 2636 2768 2444 2101 1758 1685 1703 1998 1754 1734 1742 1642 1267 1305 1655 1947 1902 1690 1621 1544 1734 1295 1042 917 869 852 925 935 934 958
3519 2378 1975 2323 2465 2551 3210 3507 3155 3053 3121 3409 3774 3810 3712 3382 3208 3152 3080 3278 3428 3818 3837 3648 3500 3238 3260 3196 3113 3078 2895 3051 2912 2660 2520 2593 2708 2716 2387 2033 1976 1998 2083 2123 1638 1373 1103 868 536 753 619 452 819 1354 1079 826 622 545 495 536 433 396 515
3240 3664 3812 2400 2472 2469 2777 2713 2927 3512 3447 3776 3848 3930 3931 3853 3566 3452 3599 3659 3864 3867 3697 3628 3278 3289 3195 3034 2998 2990 2984 2891 2804 2662 2480 2428 2371 2284 2310 2224 2167 1921 1393 1295 1788 803 683 653 397 244 240 253 283 451 8 0 0 0 0 0 0 0 38
2565 2602 2548 2725 2233 2347 2700 1784 3530 3655 3641 3756 3784 3922 4080 4125 4176 4171 4075 4079 3960 4021 3758 3640 3486 3303 3218 2979 2819 2936 2834 2860 2707 2550 2654 2424 2364 2206 2097 1909 1486 1400 1160 1051 985 818 421 217 131 416 310 424 322 246 4 0 0 0 0 0 0 0 0
2224 2612 2494 2472 2702 2076 2305 2214 3337 3460 3618 3094 3356 3975 4080 4036 4224 4294 4175 4041 3960 3971 3675 3522 3410 3138 3073 2796 2754 2964 2881 2860 2761 2522 2615 2163 2009 1957 1828 1584 1424 1180 888 892 658 545 549 366 539 375 279 128 225 680 58 0 0 0 0 0 0 35 0
1674 1621 2045 2131 2509 3310 2567 2440 3832 3576 2943 2985 3775 4137 4047 3983 4089 4111 3987 3895 3720 3645 3498 3214 3119 2858 2700 2955 2726 2970 2820 2809 2770 2691 2534 2231 2148 1909 1880 1710 1428 1079 865 747 483 747 769 341 397 560 574 335 335 367 32 0 0 0 0 0 0 0 0
2225 2514 1656 1625 1805 2445 2709 2893 3574 3208 3383 3411 3574 3842 3445 3395 3854 3635 3562 3611 3396 3059 2914 2839 2675 2699 2562 2811 2708 2906 2750 2767 2755 2777 2605 2428 2214 2093 1985 1598 1122 1088 896 792 618 456 434 441 194 395 491 590 396 277 182 11 0 0 0 0 0 0 6
1870 2115 2306 2573 3018 3034 2851 3190 2945 2673 3560 3700 3663 3116 2887 3041 3174 3290 3405 3211 2980 2684 2616 2542 2577 2525 2342 2562 2118 2280 2540 2496 2859 2708 2644 2348 2352 1939 1614 1354 1128 963 724 523 818 650 594 344 466 427 440 264 222 156 121 66 0 0 0 0 0 0 0
1591 1977 2277 2458 2808 2806 2168 2381 2354 1956 3199 3486 3215 2802 2291 2462 3059 3578 3368 2938 2824 2874 2838 2752 2610 2454 2231 2375 1947 2013 2065 2028 2585 2830 2490 1978 2097 1668 1426 1122 1109 740 733 721 537 365 388 517 502 363 332 289 84 38 124 228 16 0 0 0 0 0 0
1449 1520 1988 2256 2475 2619 2590 2289 1965 1802 1630 2726 2494 1966 2191 2206 3044 3297 3084 3049 2901 3014 2999 2790 2980 2625 2428 2143 2141 1965 2111 2067 2033 1857 1477 1503 1559 1389 1308 1134 693 692 601 547 440 451 406 340 375 370 241 192 321 219 179 193 65 2 0 0 0 0 0
1270 1321 1637 1848 1892 2290 2670 2317 2242 1559 1328 1989 1903 1590 1606 1934 2548 2792 2598 2552 3058 3000 2821 3040 2785 2744 2302 2297 1913 1851 2018 1841 1763 1723 1699 1460 1427 1140 1250 1029 635 472 507 461 482 603 322 292 244 260 193 180 268 244 128 148 92 4 1 0 0 0 0
610 1190 1236 1554 1885 1959 2268 2431 2455 2204 2219 2601 2653 2399 2297 2335 2547 2749 2207 2231 2302 2940 3368 2916 2818 2546 2515 2254 2163 2031 1810 1797 1879 1616 1634 1528 1166 943 1405 861 813 724 576 526 444 644 476 337 221 308 553 206 254 283 217 140 184 46 0 0 0 0 0
670 815 966 1244 1591 1654 1900 1943 2056 2165 2028 2020 2229 2420 2370 2293 2589 2643 2111 1865 2229 2328 3047 3283 3082 2744 2390 2204 2176 2105 1771 1685 1388 1367 1536 1358 1056 1150 1107 1008 676 623 721 671 479 550 445 536 320 422 319 397 338 303 260 228 202 133 11 0 1 0 0
1165 1078 1194 905 1206 1495 1508 1707 2073 2069 1960 1813 1931 2034 2074 2104 2110 2504 2462 1898 2084 2359 2492 3112 3014 2871 2474 2711 1953 1918 1668 1454 1062 923 709 700 584 518 489 749 444 315 721 655 508 535 624 374 242 181 135 469 501 253 258 221 166 160 139 88 110 34 2
922 1143 1499 1373 1189 968 1387 1310 1396 1827 1861 1813 1745 1806 1968 1962 2218 2133 2099 1982 2029 1940 2244 3095 2818 2375 2267 1904 2112 1983 1799 1553 1502 1241 884 725 662 578 487 471 367 366 488 522 452 370 257 237 252 160 102 230 403 534 226 193 178 214 274 322 132 188 78
1158 1162 1113 1067 1234 914 954 1374 1429 1210 1809 2181 2024 2000 2176 2228 2211 2093 2062 1945 1956 1908 2093 2365 2749 2532 2161 1872 1834 1620 2117 1541 1292 1091 986 808 1284 1004 671 500 452 605 708 7 471 530 255 180 256 289 137 125 504 419 180 111 137 183 118 26 0 0 0
1211 1359 1605 1609 1453 1324 992 1293 1589 1173 1286 2024 2363 2404 2548 2683 2613 2298 1721 1646 1880 1749 2136 2122 2271 2308 1914 1916 1637 1460 1383 1346 1222 1080 1273 887 828 961 857 583 169 174 341 0 0 0 0 0 1 0 46 166 42 70 107 117 0 0 0 0 0 0 0
1116 1220 1543 1683 1471 1229 1194 970 1118 962 736 1212 1620 1115 1963 2654 2613 2376 1670 1503 1834 1840 1714 1998 2053 1822 1912 1809 1649 1717 1584 1239 1076 1180 1725 1725 876 1117 821 654 434 0 0 0 1 0 0 0 0 0 0 0 11 0 0 0 0 0 0 0 0 0 0
956 944 1149 1644 1483 1312 1084 1144 1001 1329 1271 1490 1678 735 762 1365 2380 2252 2101 2245 2323 1950 1746 2018 1931 1738 1992 2021 1807 1640 1406 1494 1481 1521 1341 1796 2218 1971 1277 584 685 21 0 0 0 0 0 0 0 0 0 0 0 0 0 0 0 0 0 0 0 0 0
Wind_Speed
25 19 16 17 16 17 15 9 4 4 5 7 8 9 11 14 15 17 17 19 18 17 16 16 16 17 19 24 20 9 16 16 15 14 13 12 11 13 13 10 10 11 10 9 10 9 12 13 14 8 9 7 7 8 8 9 8 8 8 7 9 10 9
24 19 15 17 16 16 16 11 6 3 3 5 5 9 12 14 17 17 18 20 20 19 19 18 20 20 20 25 14 13 14 13 14 15 14 12 11 12 12 12 12 12 11 9 10 11 10 8 9 13 9 7 5 8 9 7 7 7 8 8 8 9 9
21 19 15 17 17 15 15 13 8 5 2 1 3 7 12 15 17 19 21 23 23 23 24 22 22 22 21 23 14 11 14 12 12 13 12 11 9 10 12 13 15 13 10 8 10 12 11 8 9 14 17 12 8 7 8 6 6 7 9 11 10 9 8
18 16 15 12 13 16 17 15 12 9 5 5 2 4 11 16 16 19 22 26 28 26 27 25 24 22 20 17 13 13 14 13 11 11 12 11 10 10 12 11 15 14 13 10 10 11 9 7 8 14 19 15 11 10 9 8 7 7 8 9 9 8 7
16 18 15 17 14 14 17 17 14 10 9 8 6 5 9 12 15 18 26 33 31 26 28 28 25 19 16 15 12 13 13 12 11 12 11 10 9 11 10 9 10 13 14 12 11 10 10 10 10 15 18 17 15 12 10 5 5 8 9 8 7 7 7
12 17 14 15 13 13 15 16 15 12 10 9 7 9 12 14 16 23 27 30 28 24 27 31 23 14 14 15 16 14 14 12 11 13 13 11 10 11 13 12 12 12 12 11 12 12 12 11 11 13 16 15 12 11 5 6 6 5 7 7 7 7 7
9 16 20 19 16 16 18 17 17 15 12 8 7 10 12 16 20 25 24 28 27 25 21 21 17 13 16 20 17 14 13 13 12 12 14 12 11 12 14 14 13 11 11 16 15 15 13 12 12 14 16 14 11 9 13 10 6 3 5 8 7 6 6
9 13 19 18 21 22 20 19 16 15 12 10 9 12 16 20 22 22 21 21 22 21 14 11 16 16 21 21 17 14 13 12 14 14 14 13 12 11 12 12 12 11 11 11 13 14 12 11 10 15 18 15 10 11 13 6 1 3 6 8 7 5 6
23 17 10 14 20 23 22 18 14 13 14 13 12 14 17 20 19 16 17 19 20 18 9 9 16 21 24 20 17 14 14 15 15 14 14 13 12 11 12 12 12 9 9 11 14 14 14 12 13 16 17 16 12 11 9 5 9 10 9 9 8 8 8
14 16 6 4 15 19 17 17 15 13 12 12 13 14 18 21 15 9 15 17 17 13 10 12 20 22 21 18 19 17 17 16 17 14 14 11 14 13 13 13 11 11 12 12 13 13 11 11 13 17 16 14 11 8 6 10 11 11 8 6 7 11 6
16 14 12 9 22 20 15 16 15 11 9 10 13 19 25 22 10 5 10 11 12 10 10 16 20 18 16 16 19 18 17 16 15 13 11 11 15 13 14 14 13 14 12 11 11 10 11 14 15 16 15 12 9 9 9 13 11 9 9 9 6 8 8
15 16 12 24 23 19 19 17 14 12 11 14 25 23 18 18 15 13 11 14 11 8 10 13 17 17 16 17 17 17 17 15 12 11 12 13 13 12 13 13 14 16 16 14 13 13 14 15 18 17 13 10 9 9 10 12 10 9 7 3 5 10 13
12 11 7 17 13 18 17 17 16 17 24 24 22 19 20 21 18 13 15 15 14 13 12 11 13 14 14 16 16 19 15 12 10 13 13 12 11 11 11 12 15 16 15 14 14 13 14 17 15 14 12 11 10 8 9 9 9 10 7 5 7 11 12
17 14 7 6 9 11 15 17 17 26 28 22 24 27 24 20 15 13 16 16 14 13 12 11 11 12 11 12 16 18 13 10 11 11 8 9 8 8 9 12 13 14 13 13 13 18 21 18 19 17 14 10 9 9 10 10 9 9 5 4 7 10 9
18 12 2 4 2 7 14 17 18 27 26 22 23 25 20 14 9 11 13 14 12 12 12 11 9 9 8 8 11 11 11 10 6 5 6 5 4 4 7 10 12 12 13 14 17 18 17 18 13 10 7 7 10 10 11 10 7 7 4 4 7 6 7
16 18 18 20 20 16 13 16 25 25 23 23 26 25 19 13 13 14 15 14 13 11 11 8 6 4 3 4 5 6 7 8 8 7 6 5 3 5 8 8 6 6 10 14 17 13 10 9 12 12 13 13 12 13 8 8 8 12 14 14 10 6 6
14 12 11 14 19 19 19 20 28 27 24 23 22 20 16 14 13 14 14 12 13 14 12 10 10 9 7 5 1 1 3 5 5 6 6 5 5 7 7 3 2 7 12 15 11 7 7 10 11 10 9 10 13 11 9 11 13 15 16 16 15 9 5
8 9 11 13 13 16 19 21 30 25 19 16 16 15 13 16 16 14 12 14 14 13 12 12 12 11 10 8 5 3 3 4 5 7 8 8 6 5 5 2 6 9 10 9 9 9 6 7 8 8 8 10 10 9 12 11 12 14 15 14 14 13 8
6 4 7 12 11 12 16 20 27 28 22 15 12 9 9 12 13 12 12 13 14 13 13 13 13 12 11 9 6 5 4 4 6 6 7 7 8 7 6 8 9 8 5 5 5 3 5 2 4 6 7 5 4 5 9 11 11 12 14 14 12 14 13
7 7 7 8 10 11 12 16 19 24 20 16 8 7 5 8 10 9 9 10 12 14 13 12 11 8 7 6 4 4 4 4 5 6 6 5 5 6 5 6 6 4 3 4 5 3 2 2 2 3 4 5 4 9 12 12 12 12 13 13 13 14 11
13 11 8 11 11 13 14 16 21 25 21 15 9 3 1 3 5 6 6 7 9 9 10 9 7 5 4 4 4 4 4 4 5 5 6 6 4 4 4 4 5 5 6 7 7 7 8 10 10 11 9 10 10 14 12 10 10 12 12 13 13 13 9
16 21 24 13 13 11 11 19 18 22 18 14 9 2 2 2 6 7 6 5 5 6 7 6 6 6 6 5 6 5 7 6 7 8 7 7 6 6 6 5 5 6 8 8 8 10 11 10 8 8 9 9 9 15 nan nan nan nan nan nan nan nan nan
27 31 22 20 17 14 16 13 20 19 16 11 7 3 6 8 6 7 8 7 7 8 8 9 9 9 9 8 9 8 9 9 9 9 7 8 7 7 8 9 9 9 10 9 10 9 8 7 7 9 10 11 9 15 nan nan nan nan nan nan nan nan nan
28 23 15 18 18 18 16 17 21 22 15 15 10 6 6 8 9 9 9 9 9 9 10 10 10 10 10 10 10 11 11 11 10 11 9 10 9 9 11 11 10 11 11 10 10 8 8 9 9 11 10 9 8 14 nan nan nan nan nan nan nan nan nan
31 28 23 19 20 20 19 19 23 21 18 15 10 11 9 7 9 10 11 11 10 10 9 9 11 10 10 12 12 12 11 12 11 12 11 11 10 11 12 10 13 12 11 11 8 8 10 9 11 12 11 9 10 14 nan nan nan nan nan nan nan nan nan
39 35 30 26 26 23 22 22 28 24 20 17 12 15 13 12 12 11 12 12 11 11 11 12 13 13 13 13 12 12 12 11 11 12 12 12 12 11 11 13 13 13 13 12 9 10 12 12 12 14 15 16 15 15 20 nan nan nan nan nan nan nan nan
43 39 36 32 27 25 20 24 24 21 23 19 17 16 13 12 14 15 15 14 13 12 13 14 14 14 13 14 12 12 10 11 12 12 12 13 12 15 16 15 15 15 14 13 12 15 16 14 15 15 17 18 17 16 17 nan nan nan nan nan nan nan nan
45 38 37 36 32 27 26 25 23 23 27 25 18 17 15 15 16 18 19 17 14 13 14 13 13 13 12 11 9 8 8 8 10 9 8 11 13 15 15 14 15 15 16 16 15 15 16 17 17 18 19 20 nan nan 19 24 nan nan nan nan nan nan nan
44 43 42 41 40 36 29 27 22 23 27 26 22 20 21 20 20 21 22 19 18 16 14 12 12 11 11 10 8 7 6 6 5 5 5 8 7 8 9 11 11 12 13 14 13 14 16 16 17 18 19 19 19 18 18 19 nan nan nan nan nan nan nan
44 42 46 45 43 42 38 33 31 28 28 30 24 25 25 25 31 25 24 24 19 17 15 12 13 11 11 10 9 8 7 7 5 5 7 7 6 7 10 11 9 10 12 11 11 12 15 14 14 16 15 17 17 17 16 18 nan nan nan nan nan nan nan
45 45 45 45 44 42 43 42 41 40 40 41 42 36 30 34 33 26 24 20 21 19 18 15 13 12 11 10 9 7 6 6 7 6 8 8 8 8 10 10 11 10 10 11 11 14 14 14 14 13 14 15 15 16 16 15 18 nan nan nan nan nan nan
44 44 44 45 44 43 42 42 43 45 45 44 42 40 36 32 30 27 21 20 21 23 21 20 18 15 12 10 10 7 6 5 5 6 5 9 7 8 7 8 9 7 9 9 11 11 13 13 14 14 15 15 15 16 15 16 16 19 nan nan nan nan nan
47 45 46 46 46 46 45 44 44 48 49 46 43 41 39 36 31 28 25 23 24 25 24 22 23 20 17 13 11 8 8 5 5 5 5 6 5 5 5 6 8 7 8 8 9 11 12 11 15 14 15 18 18 17 17 19 17 19 20 nan 19 nan nan
49 48 47 45 46 47 47 48 48 48 47 45 42 42 40 37 33 30 28 28 27 28 28 24 23 23 20 18 16 14 11 10 8 8 9 8 7 7 7 7 7 8 9 8 9 11 11 12 15 15 15 18 19 20 19 19 19 19 21 22 20 21 nan
49 50 48 45 47 47 48 50 51 50 49 46 43 41 41 41 37 34 33 32 33 32 32 28 24 24 23 22 21 19 19 13 11 10 9 10 9 13 16 14 12 9 12 nan 15 13 12 11 13 13 13 15 18 20 19 18 20 23 27 nan nan nan nan
49 49 50 50 48 48 49 50 52 52 52 49 46 44 44 44 42 38 36 35 36 36 36 33 26 23 23 24 24 22 23 17 11 12 10 10 9 17 18 20 23 19 14 nan nan nan nan nan nan nan nan 16 nan nan 17 19 nan nan nan nan nan nan nan
46 48 49 50 49 48 48 49 51 51 52 52 52 50 48 46 44 42 40 38 35 36 37 40 34 27 26 29 28 29 27 20 15 16 16 12 10 13 16 16 21 nan nan nan nan nan nan nan nan nan nan nan nan nan nan nan nan nan nan nan nan nan nan
43 47 49 49 49 49 49 50 50 51 54 53 52 52 51 46 42 41 42 42 40 39 40 42 41 32 28 29 31 32 27 22 19 17 21 16 14 15 14 13 13 nan nan nan nan nan nan nan nan nan nan nan nan nan nan nan nan nan nan nan nan nan nan
Wind_Direction
342 349 7 7 4 14 21 16 329 271 254 259 267 279 273 263 263 265 264 261 261 261 261 261 260 257 261 257 264 282 259 258 258 257 254 256 255 261 260 255 254 248 236 228 241 239 254 258 256 240 224 225 259 258 267 267 263 277 274 258 266 269 261
339 346 2 5 14 25 21 18 10 334 261 262 272 284 274 273 267 267 263 259 261 262 262 259 258 258 260 262 274 276 274 266 256 251 251 250 256 257 260 261 258 256 241 222 225 229 227 254 267 280 285 266 261 263 260 263 280 290 281 276 267 259 254
334 339 348 358 9 18 12 11 18 22 353 256 250 273 274 271 270 264 259 257 252 247 246 249 253 256 259 262 269 280 291 285 265 257 261 259 273 278 267 260 255 253 249 234 234 231 224 216 239 247 249 226 234 247 268 273 269 261 257 257 257 250 248
334 325 331 351 359 2 5 2 5 3 356 10 3 287 279 274 273 263 258 253 246 244 241 236 236 247 253 270 286 290 293 292 281 273 269 267 276 281 273 258 249 249 252 254 250 251 249 249 239 251 253 239 211 213 225 234 245 255 255 256 263 264 256
329 322 337 354 2 5 359 356 355 347 347 352 346 294 278 276 273 262 247 240 238 241 241 236 228 224 246 258 261 272 284 289 285 275 272 270 271 279 281 277 268 256 250 247 250 255 258 248 241 250 258 258 243 214 213 225 246 258 256 269 265 271 269
338 328 342 349 7 4 358 358 357 348 338 340 328 298 287 283 272 261 254 257 262 258 249 244 233 216 232 252 251 260 265 275 271 271 275 275 275 273 274 275 273 266 257 250 238 236 232 234 241 248 257 252 254 259 242 223 229 245 272 269 271 274 279
1 337 338 354 10 10 8 8 359 350 347 346 328 302 301 291 279 265 261 259 266 278 273 251 242 230 238 242 247 248 258 266 271 275 274 275 272 266 265 264 264 268 260 248 237 226 226 232 241 249 251 245 242 248 248 233 178 252 275 273 266 266 260
331 332 342 350 5 13 20 17 7 355 351 330 322 315 300 286 280 279 280 290 297 303 302 235 227 229 239 240 244 242 241 251 260 264 264 268 267 261 264 259 256 255 255 253 241 230 221 227 231 249 254 250 240 235 236 222 207 273 268 262 262 252 248
334 354 358 1 16 14 17 17 7 359 345 338 326 305 296 290 289 301 315 312 309 313 296 218 225 231 234 242 244 246 245 246 247 252 257 262 259 263 257 249 242 249 250 250 247 232 220 213 226 237 245 250 245 248 260 266 244 217 225 234 240 241 232
308 339 334 85 42 21 12 1 5 6 346 324 303 294 286 267 258 308 323 321 319 319 290 246 233 237 238 239 245 247 247 244 244 240 252 260 262 261 255 244 238 237 236 242 251 249 224 213 226 232 234 236 228 241 243 241 240 242 228 227 248 252 242
311 303 299 81 52 24 357 352 1 356 329 307 275 251 246 254 274 15 335 310 291 289 267 252 249 255 255 247 250 249 248 251 252 259 260 263 257 257 248 239 232 229 229 234 238 237 241 230 231 241 234 232 222 216 232 240 241 238 226 217 229 283 276
295 289 335 40 27 6 352 351 351 339 306 264 253 256 286 311 336 357 325 298 317 313 281 261 266 269 265 250 249 249 246 247 245 253 256 254 254 254 247 239 234 228 221 223 214 210 214 223 221 225 229 228 229 218 232 240 242 249 239 228 250 253 258
286 281 1 30 7 339 343 342 338 305 260 256 284 326 348 345 341 323 297 316 333 326 301 284 279 278 273 264 253 244 242 239 231 228 242 249 251 255 252 245 235 226 221 215 208 205 200 213 214 222 226 223 223 230 240 237 233 247 253 230 239 247 253
302 316 359 25 338 345 337 333 309 285 281 312 349 7 9 5 351 317 335 344 334 318 314 293 285 277 272 265 258 249 244 228 211 211 230 238 252 261 257 247 239 233 221 215 206 203 194 194 207 202 212 214 222 216 228 239 244 248 242 227 241 248 252
283 271 27 38 333 357 349 320 288 291 307 344 14 26 22 9 336 340 350 353 343 344 333 315 294 278 274 264 261 272 281 281 276 281 272 276 274 259 257 255 246 235 227 219 209 206 179 182 210 196 207 220 224 216 224 234 228 234 235 234 243 239 254
313 337 24 10 352 353 335 317 297 296 329 355 19 23 18 7 353 3 8 358 357 3 351 349 352 342 312 275 251 253 255 269 274 275 279 273 259 219 216 222 222 232 243 229 209 198 186 168 184 207 216 212 214 224 222 223 234 226 227 230 227 250 253
331 355 21 0 356 340 327 320 298 305 336 4 22 22 3 360 357 12 16 0 359 12 22 34 38 42 36 51 47 247 256 265 285 287 285 274 246 235 223 174 178 220 232 231 225 199 187 181 182 192 209 211 218 217 225 222 219 229 232 229 217 212 224
3 346 4 354 359 330 321 307 296 303 334 5 21 19 0 347 355 10 13 2 4 15 29 40 44 40 43 45 39 20 356 309 295 284 284 285 282 273 275 228 211 209 216 231 233 194 202 184 174 188 207 225 229 203 223 226 226 225 227 225 218 205 199
301 322 328 330 343 333 321 308 297 307 329 348 14 31 360 338 345 6 10 358 357 9 25 31 34 35 33 31 23 15 357 327 310 298 290 293 290 281 260 249 240 217 207 218 250 229 178 197 180 174 190 195 220 222 229 226 219 220 219 212 205 197 186
272 312 297 306 303 309 303 298 296 294 305 324 0 40 357 337 338 355 359 348 349 359 5 13 24 28 21 12 5 351 329 323 302 303 306 290 274 265 254 241 258 256 227 234 250 228 212 187 169 177 136 139 219 230 223 221 216 221 218 211 202 190 186
212 220 270 283 288 293 297 302 300 304 309 310 330 19 36 306 307 311 333 334 338 340 341 352 347 347 347 341 308 284 288 280 274 269 275 289 284 263 260 244 225 225 215 219 223 208 201 188 198 201 185 178 220 250 238 222 229 231 226 220 207 197 184
219 216 206 227 263 277 287 299 309 307 304 296 298 319 135 268 298 302 300 302 300 297 297 297 290 294 291 285 272 266 260 257 258 259 255 259 268 269 265 263 251 237 235 219 217 200 203 214 201 211 214 206 226 266 nan nan nan nan nan nan nan nan nan
235 219 205 206 234 258 267 268 282 287 291 288 285 241 171 201 228 254 274 276 271 275 275 272 269 263 260 259 258 252 256 255 255 258 265 271 270 268 269 262 248 243 236 234 234 224 246 235 228 229 227 226 217 267 nan nan nan nan nan nan nan nan nan
241 267 238 222 232 244 261 273 278 283 304 315 328 293 223 209 204 217 235 240 244 247 249 259 261 261 258 257 256 253 256 256 260 264 259 263 265 267 261 261 256 256 257 247 258 270 263 262 259 253 243 246 247 258 nan nan nan nan nan nan nan nan nan
227 237 238 233 232 238 254 272 281 285 298 309 327 312 295 263 242 223 223 224 231 234 236 243 246 253 251 255 254 252 256 260 264 274 272 279 276 273 278 278 278 274 270 268 271 263 271 275 276 275 277 269 264 254 nan nan nan nan nan nan nan nan nan
222 220 225 231 229 237 241 251 270 276 287 305 317 320 318 303 277 262 241 235 230 230 227 227 229 234 236 244 250 250 253 259 265 269 275 277 275 281 283 272 272 276 276 280 281 285 277 275 267 268 270 270 267 262 277 nan nan nan nan nan nan nan nan
227 214 213 222 225 213 238 256 269 279 291 288 298 307 302 289 283 272 263 251 238 227 224 220 222 224 225 232 234 239 242 244 255 260 261 265 268 263 261 264 268 268 269 272 262 260 268 272 266 271 270 267 270 266 271 nan nan nan nan nan nan nan nan
229 230 222 221 228 226 239 246 252 265 273 275 281 291 288 285 273 265 263 263 252 236 222 213 211 209 211 219 212 220 224 229 240 260 261 257 258 266 266 267 269 271 273 268 266 272 272 275 277 276 272 272 nan nan 266 275 nan nan nan nan nan nan nan
227 225 226 223 225 226 227 237 245 255 264 269 275 283 283 275 270 266 260 255 251 241 230 208 209 199 199 202 194 205 213 217 227 246 260 270 280 289 294 285 285 284 282 281 282 276 275 274 276 275 276 276 277 271 269 273 nan nan nan nan nan nan nan
230 224 226 224 225 230 231 233 228 236 251 259 264 270 272 269 261 245 242 244 247 259 247 225 221 207 209 206 207 214 215 229 230 247 259 278 288 286 281 291 297 294 293 292 290 287 284 279 279 278 279 282 280 279 275 274 nan nan nan nan nan nan nan
230 228 224 226 223 229 238 236 235 235 235 239 240 241 252 269 285 297 293 277 256 254 265 256 242 227 224 221 229 222 244 248 252 259 266 278 277 275 279 289 290 297 302 298 295 294 291 290 288 289 287 284 286 288 286 280 279 nan nan nan nan nan nan
225 230 229 229 228 226 233 243 242 241 240 237 240 251 255 263 278 293 286 265 254 253 256 263 258 249 236 232 234 236 245 256 282 275 263 273 267 270 266 276 280 286 290 289 292 290 293 293 291 291 288 284 281 283 284 282 281 281 nan nan nan nan nan
225 227 228 230 230 227 231 234 238 240 240 240 241 246 251 256 260 263 268 270 258 246 238 251 262 262 257 248 245 242 239 242 248 261 270 270 263 266 266 267 277 276 278 288 292 292 290 291 285 281 281 284 284 280 276 278 277 278 284 nan 281 nan nan
222 227 230 228 230 229 230 233 235 239 241 242 242 245 249 253 256 258 263 266 260 256 248 237 251 264 271 270 261 247 238 233 239 243 246 261 255 263 273 276 273 273 273 278 279 282 284 283 285 288 288 287 289 283 282 280 280 281 281 279 280 278 nan
224 226 229 227 228 231 234 232 236 239 242 243 243 244 249 251 250 249 252 256 260 259 260 245 237 248 262 268 266 263 255 242 239 238 240 253 266 253 245 249 251 260 281 nan 241 250 272 286 293 296 296 287 287 288 281 281 279 274 269 nan nan nan nan
226 226 229 229 230 232 235 238 237 239 241 243 242 242 243 247 249 251 253 255 260 264 269 267 252 253 256 258 263 266 271 268 250 254 241 248 265 270 267 265 267 254 262 nan nan nan nan nan nan nan nan 268 nan nan 282 277 nan nan nan nan nan nan nan
227 227 228 231 232 233 236 240 240 241 241 241 242 239 238 241 246 249 252 255 259 264 266 267 268 261 258 253 249 250 250 262 267 263 258 233 242 265 272 275 256 nan nan nan nan nan nan nan nan nan nan nan nan nan nan nan nan nan nan nan nan nan nan
227 226 227 231 235 235 237 241 243 244 244 244 247 249 246 245 246 248 251 253 253 257 261 263 262 263 259 255 249 245 249 251 252 257 272 263 249 255 269 268 268 nan nan nan nan nan nan nan nan nan nan nan nan nan nan nan nan nan nan nan nan nan nan